星链-35371(STARLINK-35371)

导读 | 豆包AI

STARLINK-35371是美国SpaceX星链星座中的一颗卫星,于2025年11月15日发射。作为星链网络的组成部分,它主要为全球提供高速互联网服务,尤其服务偏远地区与基础设施薄弱区域。该卫星依托星链星座低轨布局,具备低延迟通信优势,助力实现全球宽带覆盖,进一步拓展星链系统的服务规模与覆盖范围。

基本信息
目录编号:
66484
目录名称:
STARLINK-35371
国际标识:
2025-262AE
轨道中心:
EARTH
卫星名称:
星链-35371
卫星全名:
星链-35371(STARLINK-35371)
卫星状态:
在轨 (已飞行119 天)
发射日期:
2025-11-15 UTC
国别 :
美国 (US)
星等 :
--
轨道信息
数据来源 国际轨道数据
星历时间: 2026-03-14T03:44:56+0800
13小时前
查看轨道信息
半长轴: 6861.167km
偏心率: 0.0001627
轨道倾角: 43.001°
近地点辐角 263.500°
升交点赤经 273.242°
平近点角 96.567°
近地点: 481.913km
远地点: 484.147km
周期: 94.266分钟
每日圈数: 15.275867
详细信息
固有亮度:
5
最大亮度:
2.5
卫星平台:
Starlink V1.0
覆盖范围:
全球
运营商:
太空探索技术公司
运营商所在国:
美国
制造商(研发单位):
太空探索技术公司
制造商所在国:
美国
使用方式:
暂无
卫星简介
Starlink 计划是 SpaceX 推出的全球卫星互联网项目,通过发射低轨道卫星,为全球尤其是偏远地区提供高速、低延迟的互联网服务。自 2019 年起,Starlink 已部署数千颗卫星,旨在缩小全球数字鸿沟,推动互联网普及。该项目还为军事、航空等行业提供通信支持,带来广泛经济效益。
2D轨道图
3D轨道图
轨道高度分析图
轨道倾角分析图
轨道综合分析图
查看轨道综合分析图